Location: Boiro
(42.6475°N, 8.8834°W)
Time: 06:26:10
(UTC+01:00)

Envisat - Pass Details

Date: 31 October 2021
Orbit: 764 x 766 km, 98.2° (Epoch: 04 December)

Event Time Altitude Azimuth Distance (km) Brightness Sun altitude
Rises 18:53:18 0° 202° (SSW) 3,219 6.8 -5.0°
Reaches altitude 10° 18:56:07 10° 218° (SW) 2,298 6.4 -5.5°
Maximum altitude 18:59:57 21° 268° (W) 1,656 6.0 -6.2°
Drops below altitude 10° 19:03:47 10° 317° (NW) 2,310 5.9 -6.9°
Sets 19:06:39 0° 333° (NNW) 3,242 6.4 -7.4°
